DLH452 EDDM-KLAX

Flight info

Callsign DLH452
Flight time N/A
Altitude 36000
Route INPUD3Q INPUD Y102 UPALA Z109 BAMKI DCT ELSOB DCT GIKOG DCT ATTUS P992 BAVTA DCT DANKO DCT GUNPA/M084F360 DCT 67N010W/M085F380 70N020W 73N040W 73N060W DCT MEDPA/N0492F380 DCT 7030N08000W 67N090W 6130N10000W/N0484F400 DCT YVC DCT TAGOT Q838 ITREK DCT LWT DCT TCH DCT WINEN/N0468F390 Q73 EEVUN/N0465F380 Q73 HAKMN ANJLL4
Aircraft A359/H-SDE2E3GHIJ1J3J4J5M1P2RWXYZ/LB1D1

Departure

Time 2026-04-30 10:42
Airport Munich Airport (EDDM)

Arrival

Time N/A
Airport Los Angeles International Airport (KLAX)
Time Latitude Longitude Altitude Speed Heading
2026-04-30 10:25 48.35226 11.80056 1491 ft 0 kts 262°
2026-04-30 10:29 48.35227 11.80068 1491 ft 4 kts 256°
2026-04-30 10:29 48.35232 11.80092 1476 ft 0 kts 228°
2026-04-30 10:34 48.35223 11.80084 1476 ft 3 kts 209°
2026-04-30 10:34 48.35190 11.80088 1483 ft 8 kts 171°
2026-04-30 10:34 48.35134 11.80049 1483 ft 12 kts 246°
2026-04-30 10:34 48.35116 11.79893 1489 ft 18 kts 264°
2026-04-30 10:35 48.35104 11.79705 1491 ft 17 kts 278°
2026-04-30 10:35 48.35183 11.79633 1481 ft 14 kts 355°
2026-04-30 10:35 48.35288 11.79618 1491 ft 16 kts 354°
2026-04-30 10:35 48.35405 11.79601 1485 ft 18 kts 354°
2026-04-30 10:36 48.35533 11.79582 1485 ft 19 kts 354°
2026-04-30 10:36 48.35658 11.79549 1486 ft 19 kts 349°
2026-04-30 10:36 48.35795 11.79523 1487 ft 20 kts 354°
2026-04-30 10:36 48.35936 11.79503 1488 ft 21 kts 354°
2026-04-30 10:37 48.36061 11.79485 1479 ft 8 kts 353°
2026-04-30 10:37 48.36098 11.79438 1484 ft 8 kts 283°
2026-04-30 10:37 48.36092 11.79327 1480 ft 13 kts 264°
2026-04-30 10:37 48.36081 11.79163 1487 ft 18 kts 264°
2026-04-30 10:38 48.36065 11.78946 1481 ft 23 kts 263°
2026-04-30 10:38 48.36045 11.78678 1491 ft 28 kts 263°
2026-04-30 10:38 48.36021 11.78367 1480 ft 32 kts 263°
2026-04-30 10:38 48.35994 11.78019 1481 ft 34 kts 263°
2026-04-30 10:39 48.35968 11.77693 1491 ft 29 kts 263°
2026-04-30 10:39 48.35944 11.77392 1482 ft 29 kts 263°
2026-04-30 10:39 48.35921 11.77090 1480 ft 29 kts 263°
2026-04-30 10:39 48.35935 11.76875 1484 ft 0 kts 345°
2026-04-30 10:40 48.35940 11.76873 1483 ft 4 kts 345°
2026-04-30 10:40 48.35988 11.76847 1479 ft 11 kts 339°
2026-04-30 10:40 48.36085 11.76809 1485 ft 17 kts 355°
2026-04-30 10:40 48.36138 11.76802 1491 ft 0 kts 355°
2026-04-30 10:41 48.36156 11.76800 1478 ft 6 kts 355°
2026-04-30 10:41 48.36223 11.76803 1491 ft 13 kts 12°
2026-04-30 10:41 48.36285 11.76918 1481 ft 18 kts 79°
2026-04-30 10:41 48.36314 11.77268 1483 ft 60 kts 83°
2026-04-30 10:42 48.36387 11.78197 1486 ft 118 kts 83°
2026-04-30 10:42 48.36502 11.79682 1623 ft 155 kts 83°
2026-04-30 10:42 48.36610 11.81199 2697 ft 139 kts 84°
2026-04-30 10:42 48.36716 11.82615 3378 ft 144 kts 83°
2026-04-30 10:43 48.36869 11.84280 3469 ft 175 kts 82°
2026-04-30 10:43 48.37150 11.86187 3789 ft 198 kts 68°
2026-04-30 10:43 48.38162 11.87685 4063 ft 220 kts 25°
2026-04-30 10:43 48.39777 11.87827 4209 ft 251 kts 350°
2026-04-30 10:44 48.41506 11.86991 4644 ft 268 kts 335°
2026-04-30 10:44 48.42973 11.85231 5344 ft 275 kts 313°
2026-04-30 10:44 48.44158 11.82985 6056 ft 279 kts 310°
2026-04-30 10:44 48.45365 11.80642 6758 ft 280 kts 310°
2026-04-30 10:45 48.46585 11.78344 7412 ft 282 kts 311°
2026-04-30 10:45 48.47839 11.76054 8067 ft 283 kts 312°
2026-04-30 10:45 48.49104 11.73782 8753 ft 284 kts 312°
2026-04-30 10:45 48.50379 11.71508 9460 ft 284 kts 312°
2026-04-30 10:46 48.51666 11.69239 10089 ft 286 kts 312°
2026-04-30 10:46 48.52961 11.66958 10393 ft 287 kts 312°
2026-04-30 10:46 48.54259 11.64679 10638 ft 297 kts 313°
2026-04-30 10:46 48.55635 11.62255 10918 ft 311 kts 312°
2026-04-30 10:47 48.57208 11.59923 11185 ft 323 kts 326°
2026-04-30 10:47 48.59239 11.58394 11514 ft 332 kts 340°
2026-04-30 10:47 48.61440 11.57140 11834 ft 343 kts 341°
2026-04-30 10:47 48.63704 11.55861 12209 ft 350 kts 341°
2026-04-30 10:48 48.66023 11.54536 12710 ft 353 kts 340°
2026-04-30 10:48 48.68302 11.53232 13200 ft 356 kts 341°
2026-04-30 10:48 48.70629 11.51898 13714 ft 359 kts 340°
2026-04-30 10:48 48.72967 11.50546 14249 ft 361 kts 340°
2026-04-30 10:49 48.75320 11.49178 14735 ft 363 kts 340°
2026-04-30 10:49 48.77683 11.47801 15179 ft 365 kts 340°
2026-04-30 10:49 48.80064 11.46413 15645 ft 368 kts 340°
2026-04-30 10:49 48.82462 11.45016 16107 ft 370 kts 340°
2026-04-30 10:50 48.84866 11.43616 16557 ft 372 kts 340°
2026-04-30 10:50 48.87309 11.42193 16858 ft 378 kts 340°
2026-04-30 10:50 48.89781 11.40753 17237 ft 382 kts 340°
2026-04-30 10:50 48.92274 11.39300 17662 ft 385 kts 340°
2026-04-30 10:51 48.94779 11.37838 18088 ft 387 kts 340°
2026-04-30 10:51 48.97301 11.36362 18502 ft 389 kts 339°
2026-04-30 10:51 48.99832 11.34877 18903 ft 392 kts 340°
2026-04-30 10:51 49.02384 11.33379 19257 ft 394 kts 340°
2026-04-30 10:52 49.04949 11.31871 19623 ft 396 kts 339°
2026-04-30 10:52 49.06685 11.30848 19864 ft 397 kts 339°
2026-04-30 10:52 49.09239 11.29346 20205 ft 399 kts 339°
2026-04-30 10:52 49.11838 11.27819 20551 ft 401 kts 339°
2026-04-30 10:53 49.14480 11.26262 20940 ft 403 kts 339°
2026-04-30 10:53 49.17072 11.24736 21276 ft 406 kts 339°
2026-04-30 10:53 49.19715 11.23198 21643 ft 408 kts 341°
2026-04-30 10:53 49.22454 11.22038 22009 ft 409 kts 347°
2026-04-30 10:54 49.25248 11.21141 22381 ft 411 kts 349°
2026-04-30 10:54 49.28070 11.20343 22743 ft 413 kts 350°
2026-04-30 10:54 49.30911 11.19596 23084 ft 415 kts 350°
2026-04-30 10:54 49.33764 11.18870 23438 ft 417 kts 351°
2026-04-30 10:55 49.36641 11.18139 23791 ft 419 kts 350°
2026-04-30 10:55 49.39522 11.17403 24115 ft 422 kts 350°
2026-04-30 10:55 49.42423 11.16655 24417 ft 424 kts 350°
2026-04-30 10:55 49.45340 11.15896 24696 ft 425 kts 350°
2026-04-30 10:56 49.48259 11.15131 25009 ft 427 kts 350°
2026-04-30 10:56 49.51198 11.14357 25284 ft 429 kts 350°
2026-04-30 10:56 49.54151 11.13578 25594 ft 431 kts 350°
2026-04-30 10:56 49.57104 11.12798 25916 ft 433 kts 350°
2026-04-30 10:57 49.60083 11.12013 26222 ft 435 kts 350°
2026-04-30 10:57 49.63075 11.11224 26520 ft 437 kts 350°
2026-04-30 10:57 49.66079 11.10428 26836 ft 439 kts 350°
2026-04-30 10:57 49.69097 11.09626 27154 ft 441 kts 350°
2026-04-30 10:58 49.72127 11.08819 27476 ft 443 kts 350°
2026-04-30 10:58 49.75171 11.08008 27775 ft 445 kts 350°
2026-04-30 10:58 49.78227 11.07193 28101 ft 447 kts 350°
2026-04-30 10:58 49.81295 11.06374 28413 ft 449 kts 350°
2026-04-30 10:59 49.84379 11.05551 28723 ft 451 kts 350°
2026-04-30 10:59 49.87487 11.04837 29014 ft 453 kts 354°
2026-04-30 10:59 49.90641 11.04549 29305 ft 454 kts 358°
2026-04-30 10:59 49.93806 11.04377 29601 ft 456 kts 358°